RH
71 74 78 78 83 84 82 78 67 48 45 30 33 39 38 35 34 36 36 34 43 38 43 44 47 42 42 48 52 51 58 64 84 88 93 89 79 85 89 84 86 87 78 91 93 81 77
57 66 74 79 80 84 85 84 80 60 47 33 33 37 39 37 34 35 37 35 40 42 42 50 54 45 52 60 53 51 52 57 78 86 92 89 88 92 88 85 85 82 88 89 94 92 79
37 47 61 77 80 80 86 83 86 76 55 36 33 36 39 37 34 34 36 37 39 43 50 55 60 53 59 61 63 51 48 51 70 80 94 87 80 93 94 87 81 81 91 82 96 90 89
39 37 41 52 72 82 79 85 86 84 69 51 33 34 37 36 34 32 35 35 36 41 48 60 60 63 67 69 82 55 44 54 64 74 89 80 88 91 97 83 81 86 92 97 93 93 88
43 42 39 41 50 68 84 81 89 88 72 56 34 33 36 33 31 32 30 32 35 41 48 61 67 72 76 80 92 84 56 53 66 69 84 81 86 93 91 94 90 91 96 97 96 97 96
41 43 42 43 45 47 69 83 86 95 85 66 37 33 34 31 28 28 30 32 36 44 54 65 69 78 86 92 86 91 66 50 75 86 85 84 86 95 97 97 95 88 86 90 97 94 93
37 41 43 45 49 47 50 82 83 96 92 77 39 33 32 30 29 26 33 33 42 50 59 62 68 80 95 76 70 84 46 62 85 93 91 86 95 92 90 89 78 81 78 81 87 95 93
28 36 41 44 42 51 51 60 84 91 97 84 44 32 31 31 29 29 33 36 41 48 57 61 65 76 75 56 49 53 71 93 96 91 82 91 97 91 88 87 83 80 93 91 90 86 92
17 24 30 40 43 46 52 54 77 87 98 88 49 32 31 32 31 34 35 38 39 47 61 63 64 73 61 67 70 80 93 95 94 88 79 81 91 92 92 90 80 80 83 89 92 91 89
19 19 20 27 40 46 49 51 69 82 97 89 52 31 30 33 35 36 37 37 37 48 67 67 63 76 70 75 82 81 90 98 95 93 90 93 91 91 88 91 74 70 73 78 82 91 87
24 21 21 23 34 50 47 52 68 68 93 89 59 31 30 35 37 37 37 36 38 56 69 64 63 67 75 78 75 87 87 93 95 94 91 98 95 84 88 88 75 72 67 77 77 82 79
29 27 26 22 25 46 52 54 54 72 86 90 64 31 31 38 39 38 36 36 45 62 62 65 61 68 72 71 80 78 82 83 86 89 95 90 89 86 84 77 73 76 71 79 82 80 85
45 37 33 29 34 40 52 60 57 81 80 91 69 31 34 43 41 38 36 41 53 59 54 66 61 61 64 69 70 70 76 83 84 86 92 94 88 86 83 73 73 69 69 86 88 86 80
57 58 45 38 47 41 58 62 65 77 82 93 68 34 37 45 41 38 39 43 52 52 56 61 57 58 67 64 69 72 74 73 76 78 85 82 89 85 80 78 74 72 65 72 75 76 68
65 70 59 64 54 46 65 66 79 83 87 92 67 41 41 44 40 41 41 46 45 51 46 59 61 60 66 66 68 71 70 71 73 77 80 81 87 82 80 76 74 70 72 62 67 60 68
70 77 73 78 70 52 78 67 90 82 90 92 75 47 44 47 42 42 44 45 51 47 47 56 65 59 61 62 67 66 61 64 67 72 70 77 85 82 80 73 69 70 66 70 74 71 60
75 76 76 82 60 65 87 79 95 97 91 93 84 52 49 49 45 44 43 43 44 47 52 56 66 64 60 60 60 61 58 60 61 70 70 69 75 86 81 82 75 72 69 67 65 70 81
77 77 79 72 47 81 88 76 96 98 91 94 86 58 53 52 46 45 41 42 45 48 51 56 60 59 58 58 61 59 61 61 65 73 73 74 77 88 81 82 81 77 75 70 78 73 72
74 73 68 63 46 90 89 87 97 99 91 92 85 58 54 52 46 41 38 42 47 51 52 55 57 62 60 59 62 66 70 68 67 71 74 73 83 90 90 81 79 83 79 76 76 78 77
68 67 58 57 77 93 92 98 97 98 94 92 82 61 57 53 45 40 40 43 49 50 50 50 54 60 61 63 62 66 66 71 70 70 70 70 80 81 80 76 74 80 77 76 76 83 74
59 58 53 52 88 87 97 98 97 98 93 94 76 53 48 48 41 41 40 40 45 53 51 48 52 58 62 64 64 66 68 72 72 73 72 73 84 81 80 79 78 76 71 73 76 68 71
47 52 46 75 93 96 98 98 98 97 94 96 63 55 49 40 37 38 42 42 42 49 49 49 49 58 61 69 67 70 67 73 74 77 75 73 84 81 80 79 76 76 72 67 66 68 69
45 47 55 86 95 98 98 98 98 96 95 91 52 52 46 43 41 41 37 41 40 49 48 45 48 55 60 64 66 71 71 68 72 77 83 82 84 87 87 78 75 73 64 65 63 61 58
43 51 71 93 98 98 98 98 99 96 93 60 48 49 46 43 40 36 35 41 44 46 47 48 48 52 60 63 65 68 70 72 77 77 74 83 86 89 93 83 87 62 53 55 57 57 58
47 62 80 92 97 98 94 95 98 97 87 49 49 51 41 39 37 41 41 44 44 48 49 49 50 54 57 61 65 69 72 69 70 70 76 81 89 92 89 89 74 66 59 56 53 56 56
56 66 84 97 96 97 97 95 98 98 76 49 46 49 40 37 41 38 44 43 46 49 51 50 50 51 54 59 61 63 66 61 69 66 63 65 73 82 83 82 76 64 60 56 54 64 58
58 75 86 94 94 95 97 98 97 97 70 49 46 47 39 35 39 39 39 42 42 45 48 49 50 52 53 59 64 63 65 58 70 66 69 69 69 75 76 73 59 54 53 53 56 58 62
66 83 93 98 98 98 98 98 98 94 74 58 46 41 34 37 40 38 36 38 39 40 43 44 49 52 56 61 62 60 63 60 61 61 66 69 71 71 73 78 75 57 59 60 65 67 70
77 85 96 98 96 97 98 98 97 97 86 56 50 41 36 34 41 39 38 39 41 41 40 43 44 50 55 58 59 63 60 61 58 67 60 64 60 66 66 70 63 68 70 71 75 76 75